Hudson Falls, NY

2:43 AM EDT on August 30, 2016 (GMT -0400)
Bennett Memorial

Weather History for KGFL - January, 2014

Change the Weather History Date:

Monday, January 6, 2014

  Actual Average Record
Temperature  
Mean Temperature 33 °F 18 °F  
Max Temperature 49 °F 29 °F 66 °F (2007)
Min Temperature 16 °F 9 °F -30 °F (1996)
Degree Days  
Heating Degree Days 32 47  
Month to date heating degree days 347 276  
Since 1 July heating degree days 3286 3214  
Cooling Degree Days 0 0  
Month to date cooling degree days 0 0  
Year to date cooling degree days 0 0  
Moisture  
Dew Point 28 °F    
Average Humidity 75    
Maximum Humidity 100    
Minimum Humidity 49    
Precipitation  
Precipitation 0.52 in 0.09 in 0.69 in (1962)
Month to date precipitation 0.67 0.54  
Year to date precipitation 0.67 0.54  
Sea Level Pressure  
Sea Level Pressure 29.47 in    
Wind  
Wind Speed 7 mph (WSW)    
Max Wind Speed 25 mph    
Max Gust Speed 44 mph    
Visibility 5 miles    
Events Fog , Rain    
T = Trace of Precipitation, MM = Missing Value Source: NWS Daily Summary

Daily Weather History Graph

Daily Weather History Graph

Search for Another Location

Airport or City:

Trip Planner

Search our weather history database for the weather conditions in past years. The results will help you decide how hot, cold, wet, or windy it might be!

Date:

Astronomy

Jan. 06, 2014 Rise Set
Actual Time 7:26 AM EST 4:34 PM EST
Civil Twilight 6:54 AM EST 5:06 PM EST
Nautical Twilight 6:18 AM EST 5:42 PM EST
Astronomical Twilight 5:44 AM EST 6:16 PM EST
Moon 10:29 AM EST (1/6) 11:16 PM EST (1/6)
Length of Visible Light 10h 11m
Length of Day
9h 07m
Waxing Crescent, 34% of the Moon is Illuminated
Jan 6
Waxing Crescent
Jan 7
First Quarter
Jan 15
Full
Jan 24
Last Quarter
Jan 30
New

Hourly Weather History & Observations

Time (EST) Temp. Windchill Dew Point Humidity Pressure Visibility Wind Dir Wind Speed Gust Speed Precip Events Conditions
12:22 AM 30.2 °F - 28.4 °F 93% 29.71 in 2.5 mi Calm Calm - N/A   Overcast
12:53 AM 30.0 °F - 28.9 °F 96% 29.71 in 2.5 mi Calm Calm - 0.00 in   Overcast
1:16 AM 30.2 °F - 28.4 °F 93% 29.66 in 2.5 mi Calm Calm - 0.01 in   Overcast
1:53 AM 32.0 °F - 30.0 °F 92% 29.65 in 3.0 mi Calm Calm - 0.03 in   Overcast
1:59 AM 32.0 °F 28.7 °F 30.2 °F 93% 29.62 in 2.5 mi West 3.5 mph - 0.00 in Rain Light Freezing Rain
2:04 AM 32.0 °F - 30.2 °F 93% 29.61 in 1.8 mi Calm Calm - 0.05 in Rain Light Freezing Rain
2:15 AM 32.0 °F 28.7 °F 30.2 °F 93% 29.60 in 2.0 mi West 3.5 mph - 0.06 in Rain Light Freezing Rain
2:49 AM 33.8 °F - 30.2 °F 87% 29.58 in 1.8 mi Calm Calm - 0.06 in Rain Light Rain
2:53 AM 33.1 °F - 30.9 °F 92% 29.60 in 1.8 mi Calm Calm - 0.06 in Rain Light Rain
3:28 AM 33.8 °F - 32.0 °F 93% 29.53 in 1.2 mi Calm Calm - 0.00 in   Overcast
3:38 AM 33.8 °F - 32.0 °F 93% 29.52 in 1.2 mi Calm Calm - 0.00 in   Overcast
3:53 AM 33.1 °F - 33.1 °F 100% 29.53 in 1.0 mi Calm Calm - 0.00 in   Overcast
4:53 AM 33.1 °F - 32.0 °F 96% 29.47 in 1.0 mi Calm Calm - N/A   Overcast
5:21 AM 33.8 °F - 30.2 °F 87% 29.42 in 0.8 mi Calm Calm - N/A   Overcast
5:53 AM 33.1 °F - 32.0 °F 96% 29.44 in 0.5 mi Calm Calm - N/A Fog Fog
6:10 AM 33.8 °F - 33.8 °F 100% 29.39 in 0.2 mi Calm Calm - N/A Fog Fog
6:53 AM 33.1 °F - 32.0 °F 96% 29.37 in 0.2 mi Calm Calm - 0.02 in Fog , Rain Light Rain
7:09 AM 33.8 °F - 33.8 °F 100% 29.33 in 0.5 mi Calm Calm - 0.02 in Fog , Rain Light Rain
7:36 AM 33.8 °F - 33.8 °F 100% 29.29 in 0.8 mi Calm Calm - 0.05 in Rain Light Rain
7:53 AM 33.1 °F 30.0 °F 33.1 °F 100% 29.30 in 0.5 mi NNW 3.5 mph - 0.05 in Fog , Rain Light Rain
7:59 AM 33.8 °F 28.6 °F 33.8 °F 100% 29.27 in 0.2 mi WNW 5.8 mph - 0.00 in Fog , Rain Light Rain
8:24 AM 37.4 °F 30.8 °F 35.6 °F 93% 29.26 in 0.2 mi West 9.2 mph - 0.08 in Fog , Rain Heavy Rain
8:34 AM 46.4 °F 40.7 °F 46.4 °F 100% 29.27 in 1.0 mi WSW 12.7 mph 20.7 mph 0.24 in Rain Heavy Rain
8:41 AM 48.2 °F - 48.2 °F 100% 29.27 in 1.5 mi SW 13.8 mph 21.9 mph 0.30 in Rain Heavy Rain
8:49 AM 48.2 °F - 48.2 °F 100% 29.29 in 3.0 mi WSW 12.7 mph 20.7 mph 0.33 in Rain Rain
8:53 AM 48.9 °F - 48.0 °F 97% 29.32 in 6.0 mi West 16.1 mph 26.5 mph 0.33 in Rain Light Rain
9:53 AM 46.0 °F 40.6 °F 39.0 °F 76% 29.34 in 10.0 mi WSW 11.5 mph 24.2 mph 0.00 in Rain Light Rain
10:53 AM 41.0 °F 35.8 °F 37.9 °F 89% 29.39 in 10.0 mi South 8.1 mph - 0.03 in   Overcast
11:45 AM 41.0 °F 34.3 °F 32.0 °F 70% 29.39 in 10.0 mi WSW 11.5 mph 18.4 mph 0.00 in   Overcast
11:53 AM 39.9 °F 32.9 °F 32.0 °F 73% 29.42 in 10.0 mi WSW 11.5 mph 18.4 mph 0.00 in   Overcast
12:53 PM 39.0 °F 32.8 °F 28.9 °F 67% 29.39 in 10.0 mi WSW 9.2 mph - N/A   Overcast
1:53 PM 37.0 °F 31.0 °F 23.0 °F 57% 29.43 in 10.0 mi WSW 8.1 mph - N/A   Overcast
2:53 PM 35.1 °F 26.4 °F 23.0 °F 61% 29.47 in 10.0 mi West 12.7 mph 24.2 mph N/A   Overcast
3:53 PM 32.0 °F 24.2 °F 16.0 °F 52% 29.51 in 10.0 mi WNW 9.2 mph 16.1 mph N/A   Partly Cloudy
4:53 PM 30.9 °F 24.3 °F 15.1 °F 52% 29.52 in 10.0 mi Variable 6.9 mph - N/A   Mostly Cloudy
5:53 PM 30.0 °F 20.0 °F 14.0 °F 51% 29.51 in 10.0 mi WSW 12.7 mph 25.3 mph N/A   Overcast
6:53 PM 28.9 °F 22.8 °F 12.9 °F 51% 29.53 in 10.0 mi Variable 5.8 mph - N/A   Mostly Cloudy
7:53 PM 28.0 °F 19.3 °F 15.1 °F 58% 29.55 in 10.0 mi WSW 9.2 mph - N/A   Overcast
8:53 PM 25.0 °F 14.8 °F 10.9 °F 55% 29.57 in 9.0 mi West 10.4 mph 21.9 mph 0.00 in   Overcast
9:53 PM 23.0 °F 10.6 °F 8.1 °F 53% 29.58 in 10.0 mi West 13.8 mph 19.6 mph N/A   Overcast
10:53 PM 21.0 °F 8.6 °F 6.1 °F 53% 29.60 in 10.0 mi WSW 12.7 mph 21.9 mph N/A   Overcast
11:53 PM 16.0 °F 1.7 °F -7.1 °F 36% 29.64 in 10.0 mi WSW 13.8 mph 21.9 mph N/A   Scattered Clouds